Flag for U.S.A. Weather past 2 weeks in Sunrise Manor, Nevada, U.S.A.

Now
85 °F

Passing clouds.


Feels Like: 84 °F
Forecast: 70 / 93 °F
Wind: 9 mph from South

Location: Nellis Air Force Base

Current Time: Aug 21, 2014 at 5:08:37 PM

Latest Report: Aug 21, 2014 at 3:58 PM


Visibility: 10 mi

Pressure: 29.90 "Hg

Humidity: 34%

Dew point: 54 °F

Location of Sunrise ManorLocation

Historic Weather in Sunrise Manor — Graph

°F

Sunrise Manor temperature yesterday

Maximum temperature yesterday: 93 °F (at 1:58 PM)
Minimum temperature yesterday: 74 °F (at 6:58 AM)
Average temperature yesterday: 83 °F

Past Weeks' High & Low Weather Summary

 TemperatureHumidityPressure
High106 °F (Aug 17, 3:58 PM)74% (Aug 19, 7:58 AM)29.96 "Hg (Aug 19, 7:58 AM)
Low71 °F (Aug 16, 4:58 AM)5% (Aug 15, 1:58 PM)29.66 "Hg (Aug 19, 4:58 PM)
Average89 °F29%29.82 "Hg
* Reported Aug 6 3:58 PM — Aug 21 3:58 PM, Sunrise Manor, Weather by CustomWeather, © 2014

Note: Actual official high and low records may vary slightly from our data, if they occured in-between our weather recording intervals... More about our weather records

Advertising

Sunrise Manor weather history for previous 24 hours

 ConditionsComfort  
Time TempWeatherWind HumidityBarometerVisibility
3:58 PM
Aug 21
85 °FPassing clouds.9 mph34%29.90 "Hg10 mi
2:58 PM84 °FSunny.18 mph39%29.90 "Hg10 mi
1:58 PM86 °FPassing clouds.17 mph38%29.88 "Hg10 mi
12:58 PM93 °FSunny.10 mph22%29.85 "Hg10 mi
11:58 AM91 °FSunny.2 mph23%29.87 "Hg10 mi
10:58 AM88 °FSunny.2 mph28%29.88 "Hg10 mi
9:58 AM84 °FSunny.3 mph33%29.89 "Hg10 mi
8:58 AM80 °FSunny.5 mph41%29.89 "Hg10 mi
7:58 AM80 °FSunny.6 mph38%29.88 "Hg10 mi
6:58 AM73 °FClear.3 mph50%29.87 "Hg10 mi
5:58 AM72 °FClear.2 mph49%29.85 "Hg10 mi
4:58 AM75 °FClear.3 mph42%29.83 "Hg10 mi
3:58 AM75 °FPassing clouds.5 mph41%29.84 "Hg10 mi
2:58 AM75 °FPassing clouds.2 mph39%29.83 "Hg10 mi
1:58 AM74 °FClear.3 mph42%29.82 "Hg10 mi
12:58 AM75 °FClear.5 mph41%29.82 "Hg10 mi
11:58 PM
Aug 20
77 °FClear.6 mph38%29.82 "Hg10 mi
10:58 PM82 °FClear.3 mph34%29.81 "Hg10 mi
9:58 PM82 °FClear.5 mph34%29.80 "Hg10 mi
8:58 PM85 °FClear.6 mph31%29.79 "Hg10 mi
7:58 PM89 °FPassing clouds.8 mph23%29.77 "Hg10 mi
6:58 PM89 °FPassing clouds.14 mph21%29.75 "Hg10 mi
5:58 PM91 °FPassing clouds.24 mph22%29.77 "Hg10 mi
Weather by CustomWeather, © 2014

See weather overviewHow to use our weather pages